| time (UTC) | temp F | wind direction | speed MPH | gust MPH | rain 1hr in | rain 24hr in | rain mn in | humidity % | barometer mb |
| 20260906014540 | 69 | 18 | 1.0 | 4.0 | 0.00 | 0.00 | 0.00 | 53 | 1015.9 |
| 20260906013009 | 70 | 18 | 1.0 | 5.0 | 0.00 | 0.00 | 0.00 | 52 | 1015.9 |
| 20260906011526 | 71 | 336 | 1.0 | 4.0 | 0.00 | 0.00 | 0.00 | 49 | 1015.8 |
| 20260906010032 | 70 | 328 | 1.0 | 5.0 | 0.00 | 0.00 | 0.00 | 51 | 1015.8 |
| 20260906004526 | 71 | 50 | 2.0 | 6.0 | 0.00 | 0.00 | 0.00 | 47 | 1015.7 |
| 20260906003041 | 73 | 328 | 2.0 | 5.0 | 0.00 | 0.00 | 0.00 | 46 | 1015.7 |
| 20260906001528 | 72 | 337 | 2.0 | 4.0 | 0.00 | 0.00 | 0.00 | 48 | 1015.6 |
| 20260906000034 | 72 | 339 | 2.0 | 6.0 | 0.00 | 0.00 | 0.00 | 50 | 1015.7 |
| 20260905234544 | 71 | 97 | 1.0 | 3.0 | 0.00 | 0.00 | 0.00 | 51 | 1015.8 |
| 20260905233026 | 71 | 145 | 3.0 | 5.0 | 0.00 | 0.00 | 0.00 | 49 | 1015.7 |
| 20260905231542 | 71 | 183 | 4.0 | 6.0 | 0.00 | 0.00 | 0.00 | 49 | 1015.8 |
| 20260905230020 | 70 | 176 | 3.0 | 10.0 | 0.00 | 0.00 | 0.00 | 48 | 1016.0 |
| 20260905224504 | 69 | 77 | 5.0 | 10.0 | 0.00 | 0.00 | 0.00 | 49 | 1016.1 |
| 20260905223042 | 70 | 187 | 1.0 | 6.0 | 0.00 | 0.00 | 0.00 | 52 | 1016.2 |
| 20260905221552 | 69 | 100 | 2.0 | 8.0 | 0.00 | 0.00 | 0.00 | 54 | 1016.3 |
| 20260905220027 | 68 | 77 | 2.0 | 5.0 | 0.00 | 0.00 | 0.00 | 57 | 1016.7 |
| 20260905214534 | 67 | 99 | 0.0 | 3.0 | 0.00 | 0.00 | 0.00 | 63 | 1016.7 |
| 20260905213052 | 65 | 77 | 1.0 | 4.0 | 0.00 | 0.00 | 0.00 | 66 | 1016.9 |
| 20260905211559 | 65 | 77 | 2.0 | 6.0 | 0.00 | 0.00 | 0.00 | 68 | 1017.1 |
| 20260905210038 | 64 | 143 | 0.0 | 4.0 | 0.00 | 0.00 | 0.00 | 71 | 1017.1 |
| 20260905204525 | 63 | 101 | 0.0 | 4.0 | 0.00 | 0.00 | 0.00 | 77 | 1017.3 |
| 20260905203006 | 63 | 81 | 1.0 | 6.0 | 0.00 | 0.00 | 0.00 | 75 | 1017.3 |
| 20260905201555 | 63 | 204 | 1.0 | 3.0 | 0.00 | 0.00 | 0.00 | 73 | 1017.3 |
| 20260905200028 | 62 | 209 | 2.0 | 4.0 | 0.00 | 0.00 | 0.00 | 75 | 1017.4 |
| 20260905194538 | 62 | 214 | 0.0 | 4.0 | 0.00 | 0.00 | 0.00 | 76 | 1017.4 |
| 20260905193047 | 62 | 223 | 1.0 | 4.0 | 0.00 | 0.00 | 0.00 | 76 | 1017.5 |
| 20260905191531 | 62 | 223 | 0.0 | 4.0 | 0.00 | 0.00 | 0.00 | 76 | 1017.6 |
| 20260905190045 | 61 | 223 | 2.0 | 5.0 | 0.00 | 0.00 | 0.00 | 76 | 1017.6 |
| 20260905184601 | 62 | 159 | 1.0 | 5.0 | 0.00 | 0.00 | 0.00 | 76 | 1017.8 |
| 20260905183048 | 62 | 109 | 2.0 | 6.0 | 0.00 | 0.00 | 0.00 | 75 | 1017.9 |
| 20260905181517 | 61 | 146 | 0.0 | 6.0 | 0.00 | 0.00 | 0.00 | 78 | 1018.1 |
| 20260905180001 | 60 | 163 | 2.0 | 6.0 | 0.00 | 0.00 | 0.00 | 80 | 1018.0 |
| 20260905174539 | 60 | 177 | 1.0 | 5.0 | 0.00 | 0.00 | 0.00 | 80 | 1017.9 |
| 20260905173058 | 59 | 169 | 1.0 | 4.0 | 0.00 | 0.00 | 0.00 | 84 | 1017.8 |
| 20260905171534 | 58 | 195 | 1.0 | 4.0 | 0.00 | 0.00 | 0.00 | 84 | 1017.8 |
| 20260905170012 | 58 | 197 | 2.0 | 6.0 | 0.00 | 0.00 | 0.00 | 83 | 1017.8 |
| 20260905164521 | 58 | 161 | 1.0 | 5.0 | 0.00 | 0.00 | 0.00 | 84 | 1017.7 |
| 20260905163005 | 58 | 127 | 1.0 | 4.0 | 0.00 | 0.00 | 0.00 | 85 | 1017.5 |
| 20260905161539 | 57 | 127 | 0.0 | 6.0 | 0.00 | 0.00 | 0.00 | 86 | 1017.6 |
| 20260905160021 | 56 | 162 | 0.0 | 3.0 | 0.00 | 0.00 | 0.00 | 88 | 1017.5 |
| 20260905154525 | 55 | 162 | 0.0 | 2.0 | 0.00 | 0.01 | 0.00 | 90 | 1017.5 |
| 20260905153015 | 55 | 162 | 0.0 | 5.0 | 0.00 | 0.01 | 0.00 | 91 | 1017.5 |
| 20260905151551 | 53 | 159 | 1.0 | 2.0 | 0.00 | 0.01 | 0.00 | 92 | 1017.4 |
| 20260905150029 | 53 | 159 | 0.0 | 2.0 | 0.00 | 0.01 | 0.00 | 92 | 1017.5 |
| 20260905144517 | 52 | 159 | 1.0 | 5.0 | 0.00 | 0.01 | 0.00 | 92 | 1017.3 |
| 20260905143013 | 52 | 159 | 3.0 | 5.0 | 0.00 | 0.01 | 0.00 | 92 | 1017.3 |
| 20260905141523 | 52 | 100 | 0.0 | 2.0 | 0.00 | 0.01 | 0.00 | 93 | 1017.2 |
| 20260905140112 | 52 | 100 | 0.0 | 0.0 | 0.00 | 0.01 | 0.00 | 93 | 1017.1 |
| 20260905140002 | 52 | 100 | 0.0 | 0.0 | 0.00 | 0.01 | 0.00 | 93 | 1017.1 |
| 20260905134545 | 52 | 100 | 0.0 | 0.0 | 0.00 | 0.02 | 0.00 | 92 | 1016.9 |
| 20260905133003 | 52 | 100 | 0.0 | 0.0 | 0.00 | 0.02 | 0.00 | 92 | 1016.8 |
| 20260905131521 | 52 | 100 | 0.0 | 0.0 | 0.00 | 0.02 | 0.00 | 92 | 1016.8 |
| 20260905130037 | 53 | 100 | 0.0 | 1.0 | 0.00 | 0.02 | 0.00 | 92 | 1016.8 |
| 20260905124539 | 52 | 100 | 1.0 | 3.0 | 0.00 | 0.03 | 0.00 | 92 | 1016.7 |
| 20260905123029 | 52 | 100 | 0.0 | 1.0 | 0.00 | 0.03 | 0.00 | 91 | 1016.7 |
| 20260905121517 | 52 | 100 | 1.0 | 3.0 | 0.00 | 0.03 | 0.00 | 92 | 1016.8 |
| 20260905120058 | 51 | 100 | 0.0 | 0.0 | 0.00 | 0.03 | 0.00 | 93 | 1016.8 |
| 20260905120001 | 51 | 100 | 0.0 | 0.0 | 0.00 | 0.03 | 0.00 | 93 | 1016.8 |
| 20260905114546 | 51 | 100 | 0.0 | 1.0 | 0.00 | 0.04 | 0.00 | 92 | 1016.7 |
| 20260905113106 | 51 | 100 | 0.0 | 0.0 | 0.00 | 0.04 | 0.00 | 92 | 1016.6 |
| 20260905113001 | 51 | 99 | 0.0 | 0.0 | 0.00 | 0.04 | 0.00 | 92 | 1016.6 |
| 20260905111537 | 51 | 100 | 0.0 | 2.0 | 0.00 | 0.04 | 0.00 | 93 | 1016.6 |
| 20260905110014 | 51 | 100 | 0.0 | 1.0 | 0.00 | 0.04 | 0.00 | 92 | 1016.5 |
| 20260905104526 | 51 | 100 | 0.0 | 0.0 | 0.00 | 0.04 | 0.00 | 93 | 1016.3 |
| 20260905103013 | 51 | 100 | 0.0 | 1.0 | 0.00 | 0.04 | 0.00 | 92 | 1016.2 |
| 20260905101519 | 52 | 100 | 0.0 | 0.0 | 0.00 | 0.04 | 0.00 | 92 | 1016.2 |
| 20260905100055 | 52 | 100 | 0.0 | 0.0 | 0.00 | 0.04 | 0.00 | 92 | 1016.2 |
| 20260905094533 | 52 | 100 | 0.0 | 0.0 | 0.00 | 0.04 | 0.00 | 91 | 1016.2 |
| 20260905093048 | 53 | 100 | 0.0 | 0.0 | 0.00 | 0.04 | 0.00 | 91 | 1016.2 |
| 20260905091553 | 53 | 100 | 0.0 | 1.0 | 0.00 | 0.04 | 0.00 | 91 | 1016.2 |
| 20260905090049 | 53 | 100 | 0.0 | 2.0 | 0.00 | 0.04 | 0.00 | 90 | 1016.1 |
| 20260905084549 | 53 | 100 | 0.0 | 3.0 | 0.00 | 0.04 | 0.00 | 90 | 1016.0 |
| 20260905083031 | 53 | 100 | 0.0 | 1.0 | 0.00 | 0.04 | 0.00 | 89 | 1016.0 |
| 20260905081544 | 54 | 100 | 0.0 | 0.0 | 0.00 | 0.04 | 0.00 | 88 | 1015.9 |
| 20260905080059 | 54 | 100 | 0.0 | 1.0 | 0.00 | 0.04 | 0.00 | 88 | 1015.8 |
| 20260905074544 | 54 | 100 | 0.0 | 2.0 | 0.00 | 0.06 | 0.00 | 88 | 1015.8 |
| 20260905073049 | 54 | 100 | 1.0 | 2.0 | 0.00 | 0.06 | 0.00 | 88 | 1015.7 |
| 20260905071557 | 54 | 100 | 0.0 | 1.0 | 0.00 | 0.06 | 0.00 | 86 | 1015.7 |
| 20260905070105 | 55 | 100 | 0.0 | 0.0 | 0.00 | 0.06 | 0.00 | 86 | 1015.6 |
| 20260905064511 | 55 | 100 | 0.0 | 0.0 | 0.00 | 0.07 | 0.06 | 85 | 1015.4 |
| 20260905063045 | 56 | 100 | 0.0 | 1.0 | 0.00 | 0.07 | 0.06 | 84 | 1015.3 |
| 20260905061536 | 56 | 100 | 0.0 | 0.0 | 0.00 | 0.07 | 0.06 | 82 | 1015.2 |
| 20260905060009 | 57 | 100 | 0.0 | 0.0 | 0.00 | 0.07 | 0.06 | 81 | 1015.2 |
| 20260905054541 | 57 | 100 | 0.0 | 1.0 | 0.00 | 0.07 | 0.06 | 80 | 1015.1 |
| 20260905053027 | 58 | 100 | 0.0 | 2.0 | 0.00 | 0.07 | 0.06 | 80 | 1015.1 |
| 20260905051522 | 58 | 100 | 0.0 | 2.0 | 0.00 | 0.07 | 0.06 | 79 | 1015.2 |
| 20260905050031 | 58 | 100 | 0.0 | 0.0 | 0.00 | 0.07 | 0.06 | 77 | 1015.1 |
| 20260905044541 | 59 | 100 | 0.0 | 3.0 | 0.00 | 0.07 | 0.06 | 76 | 1015.3 |
| 20260905043003 | 59 | 100 | 0.0 | 2.0 | 0.00 | 0.07 | 0.06 | 75 | 1015.1 |
| 20260905041511 | 60 | 100 | 0.0 | 3.0 | 0.00 | 0.07 | 0.06 | 74 | 1015.2 |
| 20260905040024 | 60 | 91 | 0.0 | 2.0 | 0.00 | 0.07 | 0.06 | 73 | 1015.2 |
| 20260905034505 | 60 | 91 | 1.0 | 4.0 | 0.00 | 0.07 | 0.06 | 72 | 1015.0 |
| 20260905033043 | 60 | 89 | 2.0 | 6.0 | 0.00 | 0.07 | 0.06 | 72 | 1015.0 |
| 20260905031602 | 60 | 95 | 2.0 | 4.0 | 0.00 | 0.07 | 0.06 | 71 | 1014.7 |
| 20260905031500 | 60 | 94 | 2.0 | 4.0 | 0.00 | 0.07 | 0.06 | 71 | 1014.7 |
| 20260905030044 | 61 | 95 | 2.0 | 4.0 | 0.00 | 0.07 | 0.06 | 70 | 1014.7 |
| 20260905024553 | 61 | 95 | 0.0 | 6.0 | 0.00 | 0.11 | 0.06 | 70 | 1014.6 |
| 20260905023039 | 61 | 96 | 2.0 | 4.0 | 0.00 | 0.11 | 0.06 | 70 | 1014.5 |
| 20260905021530 | 62 | 97 | 3.0 | 5.0 | 0.00 | 0.11 | 0.06 | 69 | 1014.7 |
| 20260905020009 | 62 | 87 | 3.0 | 9.0 | 0.00 | 0.11 | 0.06 | 67 | 1014.6 |